Location: Gull Harbor
(47.1000°N, 122.9000°W)
Time: 12:51:11
(UTC-07:00)

Envisat - Pass Details

Date: 28 March 2019
Orbit: 764 x 766 km, 98.2° (Epoch: 23 April)

Event Time Altitude Azimuth Distance (km) Brightness Sun altitude
Rises 21:17:25 0° 219° (SW) 3,223 6.4 -17.5°
Reaches altitude 10° 21:21:07 10° 247° (WSW) 2,304 6.0 -18.0°
Maximum altitude 21:23:21 13° 273° (W) 2,115 6.2 -18.4°
Drops below altitude 10° 21:25:35 10° 300° (WNW) 2,311 6.8 -18.7°
Sets 21:29:20 0° 328° (NNW) 3,244 7.3 -19.3°
